STARLINK-5441, 54787

Orbit data source: Space-Track

STARLINK-5441, 54787 is a payload satellite owned by SpaceX/Seattle (US) in LEO that was launched on Sat, 17 Dec 2022 UTC via an FALCON 9 launch vehicle from the Air Force Eastern Test Range (AFETR). Payload-class satellites include a variety of spacecraft equipped with specific instruments for various scientific and technological missions. These include communications satellites like Starlink; space stations such as the ISS; scientific satellites like the Hubble; Earth observation satellites from companies like Planet Labs, Umbra, and HawkEye 360; GPS; miniature CubeSats for education and research; and military/defense satellites.

Loading next visibility...
Identifier
54787, 2022-175AF
Orbit
LEO
Last TLE update
8 hours ago
Origin
Manufacturer
SpaceX/Seattle
Mission
Operational Commercial Communications
Bus & Motor
STARLINK, Unknown motor
Mass
305 kg wet, ~290 kg dry
Launch date (UTC)
2022-12-17 (2 years ago)
Launch vehicle
FALCON 9
Launch site
Air Force Eastern Test Range (AFETR)
Object type
Payload
Rocket body
Debris
Shape & HBR
Box + 1 Pan, 8.86 m
Radar Cross Section
13.562 m², Large (>1 m²)

Expand to show TLE details & history

TLE from 8 hours ago
0 STARLINK-5441
1 54787U 22175AF  25130.91059180 -.00000261  00000-0  16863-5 0  9991
2 54787  53.2189 323.0671 0001316  84.5580 275.5562 15.08832984134215
Epoch: 2025-05-10T21:51Z
Definitive object data (Epoch: 2025-05-10T21:51:15.131Z)
Latitude
-0.00005°
Longitude
126.30842°
Altitude
540.574 km
Speed
7.593 km/s
True Right ascension
21h 32m 16s
True Declination
0° 00' 00"
Sunlit
Object was in daylight at TLE epoch
Visualization TLE readout
Latitude
17.47259°
Longitude
138.33754°
Altitude
539.655 km
Speed
7.595 km/s
Apparent Right ascension
23h 56m 54s
Apparent Declination
-11° 13' 14"
Sunlit
Object is in daylight
Visualization observer readout
Local Sidereal Time
14:10:36
Azimuth
55.163° ENE
Elevation
-48.829°
Doppler factor
1
Orbital elements
Apogee altitude
540.92 km
Perigee altitude
539.099 km
Semi-major axis
6,918.147 km
Eccentricity
0.0001316
Inclination
53.2189°
RAAN
323.0671°
Arg. of periapsis
84.558°
True anomaly
275.54119°
Mean anomaly
275.5562°
Eccentric anomaly
275.5487°
Mean motion
3.77189 °/min
BSTAR
0.0000016863
Orbital period
95.44 mins
Loading maneuver chart data...
Loading SW <> Apogee altitude chart data...
Loading historical data...
Loading historical data...
Loading historical data...
Loading historical data...
Loading historical data...
Loading historical data...
Loading historical data...

STARLINK-5441 Visibility forecast

Observer location: undefined°, undefined°

Span
Click to sort rows by Start time (UTC) header in descending order
Start Az.
Max El. time (UTC)
Max El. Az.
Max El.
End time (UTC)
End Az.
6 mins2025-05-11 15:31:58.766Z228.334° WSW2025-05-11 15:34:58.766Z52.134° ENE43.206°2025-05-11 15:37:58.766Z50.184° ENE
4 mins2025-05-11 17:12:58.766Z310.873° NW2025-05-11 17:13:58.766Z330.474° NNW19.347°2025-05-11 17:16:58.766Z23.429° NE
4 mins2025-05-11 20:33:58.766Z350.719° N2025-05-11 20:35:58.766Z29.312° NE18.438°2025-05-11 20:37:58.766Z62.541° ENE
6 mins2025-05-11 22:12:58.766Z313.129° NW2025-05-11 22:14:58.766Z329.48° NNW43.01°2025-05-11 22:18:58.766Z127.883° SE
|